www.pogodaiklimat.ru

Погода и климат >> Архив погоды >> Ирландия >> Sherkin Island


ПОГОДА в Sherkin Island

  • Прогноз погоды в Sherkin Island
  • Монитор погоды в Sherkin Island
  • Климат города

АРХИВ ПОГОДЫ в Sherkin Island

Время (UTC), дата Ветер
(напр.,м/с)
 
Видим.   Явления Облачность Т
(С)
Тd
(С)
f
(%)
Тe
(С)
Тes
(С)
Комфортность P
(гПа)
Po
(гПа)
Тmin
(С)
Tmax
(С)
R
(мм)
R24
(мм)
S
(см)
17 10.12 ЮЗ 5 10 км н/о +11.2 +9.8 91 +8 +8 1024.9 1022.3
16 10.12 ЮЗ 5 7000 м дымка н/о +11.3 +10.4 94 +8 +8 1025.2 1022.5
18 10.12 ЮЗ 4 8000 м дымка н/о +11.1 +9.8 92 +9 +9 1025.0 1022.3
19 10.12 Ю 6 10 км н/о +10.9 +9.6 92 +8 +8 1024.7 1022.1
20 10.12 Ю 5 6000 м дымка н/о +10.6 +9.7 94 +8 +8 1024.3 1021.7
21 10.12 Ю 5 10 км н/о +10.6 +9.8 95 +8 +8 1024.3 1021.6
23 10.12 Ю 5 8000 м дымка н/о +10.3 +9.7 96 +7 +7 1023.4 1020.8
22 10.12 Ю 6 9000 м дымка н/о +10.5 +9.7 95 +7 +7 1024.2 1021.6
00 11.12 Ю 6 8000 м дымка н/о +10.4 +9.6 95 +7 +7 1022.7 1020.0 0.2
01 11.12 Ю 6 8000 м дымка н/о +10.1 +9.4 95 +7 +7 1021.9 1019.3
02 11.12 Ю 7 12 км н/о +10.4 +9.3 93 +7 +7 1020.9 1018.3
03 11.12 ЮВ 8 14 км н/о +10.4 +8.9 90 +6 +6 1020.1 1017.5
05 11.12 ЮВ 9 13 км н/о +10.5 +8.9 90 +6 +6 1018.0 1015.4
04 11.12 Ю 9 14 км н/о +10.5 +9.0 90 +6 +6 1019.7 1017.0
06 11.12 ЮВ 9 13 км н/о +10.7 +9.2 90 +7 +7 1017.3 1014.7 +10.1 0.3
07 11.12 ЮВ 10 13 км н/о +10.7 +8.9 89 +6 +6 1016.6 1013.9
08 11.12 ЮВ 10 15 км н/о +10.8 +8.7 87 +7 +7 1015.6 1013.0
09 11.12 ЮВ 10 13 км н/о +11.0 +9.1 88 +7 +7 1015.1 1012.5
11 11.12 Ю 9 12 км н/о +11.3 +9.4 88 +7 +7 1014.4 1011.8
10 11.12 Ю 11 12 км н/о +11.2 +9.1 87 +7 +7 1015.0 1012.4
12 11.12 ЮВ 10 10 км в посл. час дождь {ливн. осадки} н/о +11.1 +9.7 91 +7 +7 1013.1 1010.5 0.4
13 11.12 ЮВ 10 5000 м слаб. ливневой дождь н/о +11.1 +10.2 94 +7 +7 1011.7 1009.1
14 11.12 Ю 12
{17}
3600 м ливневой дождь н/о +11.2 +10.3 94 +7 +7 1010.5 1007.9
15 11.12 Ю 7
{19}
8000 м морось {ливн. осадки, дождь} н/о +10.2 +9.2 94 +6 +6 1011.3 1008.7
17 11.12 З 7 9000 м в посл. час морось н/о +9.6 +8.5 93 +6 +6 1011.6 1008.9
16 11.12 Ю 8 3000 м слаб. дождь н/о +10.1 +9.1 94 +6 +6 1010.9 1008.3
18 11.12 З 6 9000 м дымка {ливн. осадки, дождь} н/о +9.2 +8.0 92 +5 +5 1012.3 1009.7 +11.4 3
19 11.12 З 6 13 км н/о +9.1 +7.0 87 +5 +5 1012.7 1010.0
20 11.12 З 5 11 км н/о +8.8 +7.0 88 +5 +5 1013.4 1010.7
21 11.12 З 6 11 км н/о +8.9 +7.1 88 +5 +5 1014.6 1011.9
23 11.12 З 4 9000 м дымка н/о +8.4 +6.8 90 +5 +5 1015.7 1013.1
22 11.12 З 5 14 км н/о +8.7 +6.5 86 +5 +5 1015.1 1012.5
00 12.12 З 2 9000 м дымка н/о +7.8 +5.9 88 +6 +6 1016.0 1013.3
01 12.12 З 2 7000 м дымка н/о +7.7 +6.3 91 +6 +6 1016.2 1013.6
02 12.12 СВ 1 18 км н/о +6.1 +5.1 93 +5 +5 1016.4 1013.8
03 12.12 В 1 11 км н/о +6.4 +5.4 93 +5 +5 1016.6 1013.9
05 12.12 В 1 11 км н/о +5.4 +5.1 98 +4 +4 1015.4 1012.8
04 12.12 СВ 2 5000 м дымка н/о +5.2 +4.4 95 +2 +2 1016.3 1013.6
06 12.12 ЮЗ 6 8000 м дымка н/о +9.2 +6.6 84 +5 +5 1015.2 1012.5 +4.2
07 12.12 Ю 5 26 км н/о +9.1 +6.0 81 +6 +6 1014.6 1012.0
08 12.12 Ю 7 29 км н/о +9.6 +6.2 79 +6 +6 1013.9 1011.3
09 12.12 Ю 9 30 км н/о +9.9 +6.2 78 +6 +6 1013.1 1010.5
11 12.12 ЮВ 8 18 км н/о +10.2 +6.7 79 +6 +6 1011.4 1008.8
10 12.12 Ю 9 27 км н/о +10.1 +6.6 79 +6 +6 1012.6 1010.0
12 12.12 ЮВ 10 17 км н/о +10.4 +6.9 79 +6 +6 1009.9 1007.3 0.1
13 12.12 ЮВ 10 16 км н/о +10.5 +7.3 81 +6 +6 1008.9 1006.3
14 12.12 ЮВ 12 13 км н/о +10.4 +7.4 82 +6 +6 1007.3 1004.7
15 12.12 ЮВ 13
{18}
15 км н/о +10.5 +7.4 81 +6 +6 1005.8 1003.2
17 12.12 ЮВ 13
{18}
12 км слаб. морось {дождь} н/о +10.0 +7.5 84 +5 +5 1003.9 1001.3
16 12.12 ЮВ 12
{19}
8000 м слаб. дождь н/о +10.1 +8.0 87 +5 +5 1005.2 1002.6
18 12.12 ЮВ 13
{22}
12 км слаб. ливневой дождь н/о +10.1 +7.5 84 +5 +5 1002.3 999.7 +10.6 0.8
19 12.12 ЮВ 14
{21}
10 км слаб. ливневой дождь н/о +9.4 +6.9 84 +4 +4 1001.1 998.5
20 12.12 ЮВ 14
{22}
5000 м слаб. дождь н/о +9.5 +7.8 89 +4 +4 1000.1 997.5
21 12.12 ЮВ 16
{24}
8000 м морось {ливн. осадки, дождь} н/о +9.4 +6.4 82 +4 +4 999.2 996.6
23 12.12 ЮВ 16
{25}
7000 м слаб. ливневой дождь н/о +9.8 +7.2 84 +4 +4 998.3 995.7
22 12.12 ЮВ 16
{26}
8000 м слаб. дождь н/о +9.1 +6.2 82 +3 +3 998.5 995.9
00 13.12 ЮВ 15
{22}
7000 м в посл. час дождь {ливн. осадки} н/о +9.8 +8.1 89 +4 +4 998.1 995.5 6
01 13.12 ЮВ 13
{21}
6000 м дымка н/о +9.9 +8.6 92 +5 +5 997.9 995.3
02 13.12 ЮВ 13
{19}
3600 м слаб. дождь н/о +9.9 +9.1 95 +5 +5 997.6 995.0
03 13.12 ЮВ 14
{20}
2800 м дождь {дымка} н/о +9.7 +8.7 93 +4 +4 996.7 994.1
05 13.12 ЮВ 14
{20}
4800 м слаб. дождь н/о +10.0 +9.2 95 +5 +5 996.6 994.0
04 13.12 ЮВ 13
{22}
3400 м слаб. дождь н/о +9.8 +9.1 95 +4 +4 997.0 994.4
06 13.12 ЮВ 13
{21}
3800 м слаб. дождь {дымка} н/о +10.0 +9.3 95 +5 +5 996.8 994.3 +8.7 14
07 13.12 ЮВ 9
{19}
7000 м в посл. час морось н/о +10.6 +9.7 94 +6 +6 997.3 994.8
08 13.12 ЮВ 5 7000 м дымка н/о +10.4 +9.4 94 +7 +7 998.1 995.5
09 13.12 ЮВ 4 6000 м дымка {морось} н/о +10.3 +9.5 95 +8 +8 999.5 997.0
11 13.12 З 7 6000 м в посл. час морось {ливн. осадки} н/о +10.1 +8.4 89 +6 +6 1003.4 1000.8
10 13.12 З 6 4400 м дымка н/о +10.3 +9.6 95 +7 +7 1001.4 998.8
12 13.12 З 7 7000 м дымка {ливн. осадки, морось} н/о +10.6 +8.7 88 +7 +7 1004.6 1002.0 0.3
13 13.12 З 6 9000 м дымка н/о +11.0 +8.6 85 +8 +8 1005.8 1003.2
14 13.12 З 4 11 км н/о +11.0 +7.8 81 +9 +9 1006.8 1004.2
15 13.12 З 4 9000 м дымка н/о +11.1 +8.2 82 +9 +9 1007.3 1004.7
17 13.12 СЗ 4 7000 м дымка н/о +10.2 +7.4 83 +8 +8 1009.6 1007.0
16 13.12 СЗ 2 13 км н/о +10.7 +7.8 82 +9 +9 1009.1 1006.5
18 13.12 СЗ 2 8000 м дымка н/о +9.5 +7.4 87 +8 +8 1010.5 1007.9 +11.5 0.3
19 13.12 СЗ 1 6000 м дымка н/о +8.6 +7.3 92 +8 +8 1011.5 1008.9
20 13.12 СВ 2 6000 м дымка н/о +7.9 +6.2 89 +6 +6 1011.8 1009.2
21 13.12 СВ 1 15 км н/о +7.5 +6.4 93 +6 +6 1012.3 1009.6
23 13.12 СЗ 1 2200 м дымка н/о +8.6 +7.6 93 +8 +8 1013.1 1010.5
22 13.12 З 1 4500 м дымка н/о +7.4 +6.4 93 +6 +6 1012.7 1010.0
00 14.12 штиль 0 4300 м дымка н/о +7.4 +6.7 95 +6 +6 1013.7 1011.1
01 14.12 В 1 4300 м дымка н/о +6.5 +5.9 96 +5 +5 1013.7 1011.0
02 14.12 В 2 3300 м дымка н/о +7.5 +7.0 97 +5 +5 1013.6 1010.9
03 14.12 В 1 3700 м дымка н/о +7.1 +6.5 96 +6 +6 1013.4 1010.7
05 14.12 Ю 4 11 км н/о +9.0 +7.3 89 +6 +6 1012.8 1010.2
04 14.12 ЮВ 2 2800 м дымка н/о +7.6 +7.1 97 +5 +5 1013.2 1010.5
06 14.12 Ю 5 12 км н/о +9.3 +7.1 86 +6 +6 1012.5 1009.9 +5.7 0.1
07 14.12 Ю 6 19 км н/о +9.3 +6.4 82 +6 +6 1012.1 1009.4
08 14.12 Ю 7 24 км н/о +9.7 +6.7 82 +6 +6 1012.3 1009.6
09 14.12 Ю 10 30 км н/о +10.0 +6.5 79 +6 +6 1012.1 1009.5
11 14.12 Ю 11 12 км н/о +10.4 +7.9 84 +6 +6 1012.1 1009.5
10 14.12 Ю 11 19 км н/о +10.2 +6.9 80 +6 +6 1012.2 1009.6
12 14.12 Ю 11 6000 м дождь н/о +9.6 +7.8 89 +5 +5 1011.9 1009.3 1
13 14.12 Ю 10 3700 м слаб. дождь н/о +9.3 +8.5 95 +4 +4 1010.9 1008.3
14 14.12 Ю 10 3300 м морось {дождь} н/о +9.6 +9.2 97 +5 +5 1009.9 1007.3
15 14.12 ЮВ 11 3500 м слаб. дождь н/о +9.8 +9.5 98 +5 +5 1008.8 1006.2
17 14.12 Ю 11
{20}
3400 м слаб. дождь н/о +10.4 +10.0 97 +6 +6 1008.0 1005.3
16 14.12 Ю 10 2300 м слаб. дождь н/о +10.1 +9.8 98 +5 +5 1008.7 1006.1
18 14.12 Ю 11 2000 м слаб. ливневой дождь н/о +10.7 +10.5 99 +6 +6 1007.2 1004.6 +10.7 6
19 14.12 Ю 11 1800 м морось {дождь} ?/? +11.0 +10.8 99 +7 +7 1006.7 1004.1
20 14.12 Ю 10 900 м туман {морось} ?/? +11.2 +11.0 99 +7 +7 1006.2 1003.6
21 14.12 Ю 10 3100 м ливневой дождь н/о +11.4 +11.3 99 +7 +7 1005.5 1002.9
23 14.12 ЮВ 4 600 м слаб. ливневой дождь ?/? +11.3 +11.3 100 +9 +9 1004.3 1001.7
22 14.12 Ю 8 3300 м слаб. дождь н/о +11.3 +11.2 99 +8 +8 1005.2 1002.6
00 15.12 ЮВ 6 4300 м морось {ливн. осадки, дождь} н/о +11.4 +11.3 99 +8 +8 1002.8 1000.2 7
01 15.12 Ю 9 3100 м слаб. дождь н/о +11.5 +11.5 100 +8 +8 1001.4 998.8
02 15.12 Ю 8 1000 м слаб. ливневой дождь ?/? +11.8 +11.8 100 +8 +8 1000.8 998.2
03 15.12 Ю 7 300 м туман {ливн. осадки, дождь} ?/? +11.8 +11.8 100 +8 +8 999.2 996.6
05 15.12 Ю 9 500 м слаб. ливневой дождь ?/? +11.6 +11.5 99 +8 +8 998.1 995.5
04 15.12 Ю 10 1800 м слаб. дождь ?/? +11.8 +11.7 99 +8 +8 998.1 995.5
06 15.12 Ю 6 2700 м слаб. дождь {ливн. осадки} н/о +11.3 +11.3 100 +8 +8 995.7 993.1 +10.7 11
07 15.12 ЮВ 9 1100 м в посл. час морось ?/? +11.2 +11.1 99 +7 +7 993.9 991.3
08 15.12 Ю 14
{18}
4100 м дождь н/о +12.2 +12.0 99 +8 +8 991.7 989.2
09 15.12 Ю 15
{21}
4400 м в посл. час дождь {морось} н/о +12.4 +12.2 99 +8 +8 990.6 988.0
11 15.12 Ю 14
{20}
6000 м в посл. час дождь {ливн. осадки} н/о +12.7 +12.2 97 +9 +9 987.6 985.0
10 15.12 Ю 14
{19}
5000 м слаб. ливневой дождь н/о +12.6 +12.4 99 +8 +8 989.4 986.8
12 15.12 Ю 12
{18}
6000 м в посл. час морось {ливн. осадки, дождь} н/о +12.7 +12.2 97 +9 +9 985.0 982.5 3
13 15.12 Ю 10
{18}
5000 м морось н/о +11.8 +9.4 85 +8 +8 982.0 979.5
14 15.12 З 15
{23}
3100 м ливневой дождь н/о +10.4 +9.2 92 +5 +5 982.0 979.5
15 15.12 З 17
{30}
5000 м слаб. дождь {ливн. осадки} н/о +7.7 +6.0 89 +1 +1 988.9 986.3
17 15.12 З 13
{21}
13 км в посл. час морось н/о +9.0 +5.0 76 +4 +4 995.0 992.4
16 15.12 З 16
{24}
11 км в посл. час дождь н/о +8.2 +5.6 84 +2 +2 992.6 990.0
18 15.12 З 12
{18}
12 км {ливн. осадки, дождь} н/о +9.1 +5.5 78 +4 +4 996.6 994.0 +12.8 5
19 15.12 З 14
{18}
7000 м слаб. ливневой дождь {дымка} н/о +8.7 +5.7 81 +3 +3 997.8 995.2
20 15.12 З 13
{17}
16 км слаб. ливневой дождь н/о +8.6 +5.0 78 +3 +3 998.8 996.2
21 15.12 З 11
{18}
14 км {ливн. осадки, морось} н/о +8.8 +5.0 77 +4 +4 999.5 996.9
23 15.12 З 14
{20}
7000 м слаб. дождь {морось} н/о +8.1 +4.4 77 +2 +2 1000.6 998.0
22 15.12 З 11 15 км н/о +9.1 +4.8 74 +4 +4 1000.1 997.5
00 16.12 ЮЗ 11 14 км {ливн. осадки, морось} н/о +9.5 +4.8 72 +5 +5 1000.6 998.0 0.6
01 16.12 ЮЗ 9 15 км н/о +10.0 +4.8 70 +6 +6 1000.6 998.1
02 16.12 ЮЗ 11 23 км слаб. ливневой дождь н/о +9.5 +4.8 72 +5 +5 1000.3 997.7
03 16.12 ЮЗ 9 15 км {ливн. осадки} н/о +9.5 +4.2 69 +5 +5 1000.4 997.8
05 16.12 ЮЗ 5 11 км в посл. час морось н/о +9.1 +5.6 79 +6 +6 999.3 996.7
04 16.12 ЮЗ 6 11 км н/о +9.2 +5.1 76 +6 +6 999.9 997.3
06 16.12 ЮЗ 6 9000 м слаб. ливневой дождь {морось} н/о +7.7 +5.7 87 +3 +3 999.3 996.7 +7.5 3
07 16.12 ЮЗ 5 12 км слаб. ливневой дождь н/о +7.8 +5.4 85 +4 +4 998.6 996.0
08 16.12 ЮЗ 5 7000 м слаб. ливневой дождь н/о +8.0 +5.8 86 +4 +4 998.5 995.9
09 16.12 ЮЗ 3 6000 м дождь {ливн. осадки} н/о +7.3 +5.8 90 +4 +4 999.1 996.5
11 16.12 З 5 19 км в посл. час дождь {ливн. осадки} н/о +8.1 +6.4 89 +4 +4 1000.0 997.4
10 16.12 ЮЗ 6 19 км в посл. час дождь {ливн. осадки} н/о +7.8 +5.3 84 +4 +4 999.4 996.8
12 16.12 З 7 20 км {ливн. осадки, дождь} н/о +9.5 +6.4 81 +6 +6 999.9 997.3 6
13 16.12 З 8 17 км н/о +9.8 +5.8 76 +6 +6 999.9 997.3
14 16.12 З 9 14 км н/о +9.2 +4.8 74 +5 +5 1000.5 997.9
15 16.12 З 7 21 км в посл. час дождь {ливн. осадки} н/о +9.0 +5.8 80 +5 +5 1001.4 998.8
17 16.12 З 7 18 км н/о +8.7 +5.3 79 +5 +5 1003.6 1001.0
16 16.12 З 6 15 км н/о +8.8 +5.7 81 +5 +5 1002.5 999.9
18 16.12 З 8 15 км {ливн. осадки} н/о +9.1 +5.5 78 +5 +5 1004.5 1001.9 +10.3 6
19 16.12 З 9 18 км н/о +9.4 +5.5 77 +5 +5 1005.4 1002.8
20 16.12 З 9 17 км н/о +9.2 +5.1 76 +5 +5 1006.4 1003.8
21 16.12 З 7 13 км н/о +9.4 +5.8 78 +6 +6 1007.2 1004.6
23 16.12 З 9 14 км н/о +10.0 +5.1 72 +6 +6 1008.5 1005.9
22 16.12 З 9 18 км в посл. час морось {ливн. осадки} н/о +9.5 +5.2 75 +5 +5 1008.2 1005.6
00 17.12 ЮЗ 5 11 км {ливн. осадки} н/о +9.4 +5.4 76 +6 +6 1009.1 1006.5 0.0
01 17.12 ЮЗ 5 10 км н/о +9.7 +5.3 74 +7 +7 1008.9 1006.3
02 17.12 ЮЗ 7 12 км н/о +9.7 +6.6 81 +6 +6 1009.2 1006.6
03 17.12 ЮЗ 7 10 км н/о +10.1 +7.3 83 +6 +6 1009.4 1006.8
05 17.12 Ю 9 12 км н/о +10.5 +7.5 82 +6 +6 1008.7 1006.1
04 17.12 Ю 9 14 км н/о +10.2 +7.0 81 +6 +6 1009.2 1006.6
06 17.12 Ю 10 13 км н/о +10.7 +8.3 85 +6 +6 1008.2 1005.6 +8.9 0.0
07 17.12 Ю 10 4200 м слаб. ливневой дождь н/о +10.6 +9.0 90 +6 +6 1007.6 1005.0
08 17.12 Ю 11 7000 м слаб. ливневой дождь н/о +10.6 +9.5 93 +6 +6 1007.1 1004.5
09 17.12 Ю 12 9000 м в посл. час дождь {ливн. осадки} н/о +11.1 +9.7 91 +7 +7 1006.5 1003.9
11 17.12 Ю 13
{19}
7000 м дымка н/о +11.6 +10.2 91 +7 +7 1005.5 1002.9
10 17.12 Ю 13 8000 м дымка н/о +11.3 +10.0 92 +7 +7 1006.5 1003.9
12 17.12 Ю 13
{18}
7000 м дымка {ливн. осадки} н/о +11.9 +10.2 89 +8 +8 1004.5 1001.9 1
13 17.12 Ю 14
{19}
7000 м дымка н/о +11.9 +10.3 90 +7 +7 1003.6 1001.0
14 17.12 Ю 14
{19}
7000 м дымка н/о +12.1 +10.3 89 +8 +8 1002.8 1000.2
15 17.12 Ю 15
{20}
8000 м дымка н/о +12.1 +10.3 89 +8 +8 1001.5 999.0
16 17.12 Ю 16
{22}
8000 м дымка н/о +12.2 +10.2 88 +8 +8 1000.9 998.3

 

Местоположение метеостанции Sherkin Island (Ирландия): широта 51.48 долгота -9.43 высота над уровнем моря 21 м.

В архиве по умолчанию представлена погода в Sherkin Island за последнюю неделю. Архивные данные за месяц целиком и за предыдущие месяцы, начиная с января 2011 года, Вы можете получить, выбрав интересующий диапазон дат из раскрывающегося списка и нажав кнопку "Ввод!".


*Определитесь, кто Вы:
робот инопланетянин человек

Внимание! Время в таблицах - всемирное. Для получения местного времени необходимо прибавить поправку, которая в Sherkin Island равна 0 ч.

Смотрите также архив погоды в соседних городах и на ближайших метеорологических станциях:

Погода в Valentia Observatory (Ирландия) (75 км)
Погода в Cork Airport (Ирландия) (77 км)
Погода в Roches Point (Ирландия) (89 км)
Погода в Shannon Airport (Ирландия) (139 км)
Погода в Gurteen (Ирландия) (198 км)
Погода в Mace Head (Ирландия) (207 км)
Погода в Johnstown Castle (Ирландия) (221 км)
Погода в Oak Park, Carlow (Ирландия) (230 км)
Погода в Claremorris (Ирландия) (250 км)
Погода в Mullingar (Ирландия) (269 км)

Пояснения к столбцам:

Ветер - указаны скорость ветра в м/с - средняя за 10 мин, порывы в срок и между сроками (в фигурных скобках) и направление, откуда дует ветер: С - северный, СВ - северо-восточный, В - восточный, ЮВ - юго-восточный, Ю - южный, ЮЗ - юго-западный, З - западный, СЗ - северо-западный.
Видимость - горизонтальная дальность видимости в метрах или километрах. При видимости от 1 до 10 км при отсутствии осадков обычно наблюдается дымка, при ухудшении видимости до 1 км и менее - туман. В сухую погоду видимость может ухудшаться дымом, пылью или мглою.
Явления - указаны атмосферные явления, наблюдавшиеся в срок или в последний час перед сроком; фигурными скобками обозначены явления, наблюдавшиеся между сроками (за 1-3 часа до срока); квадратными скобками обозначены град или гололедные отложения с указанием их диаметра в мм.
Облачность - указаны через наклонную черту общая и нижняя облачность в баллах и высота нижней границы облаков в метрах; квадратными скобками обозначены формы облаков: Ci - перистые, Cs - перисто-слоистые, Cc - перисто-кучевые, Ac - высококучевые, As - высокослоистые, Sc - слоисто-кучевые, Ns - слоисто-дождевые, Cu - кучевые, Cb - кучево-дождевые. Подробнее классификацию облаков см. в Атласе облаков (PDF).
T - Температура воздуха - температура, измеренная на высоте 2 м над землей.
Td - Температура точки росы - температура, при понижении до которой содержащийся в воздухе водяной пар достигнет насыщения.
f - Относительная влажность воздуха - влажноcть воздуха, измеренная на высоте 2 м над землей.
Te - Эффективная температура - температура, которую ощущает одетый по сезону человек в тени. Характеристика душности погоды. При расчете учитывается влияние влажности воздуха и скорости ветра на теплоощущения человека.
Tes - Эффективная температура на солнце - температура, которую ощущает человек, с поправкой на солнечный нагрев. Характеристика знойности погоды. Зависит от высоты солнца над горизонтом, облачности и скорости ветра. Ночью, в пасмурную погоду, а также при ветре 12 м/с и более поправка равна нулю.
P - Атмосферное давление - приведенное к уровню моря атмосферное давление.
Po - Атмосферное давление - измеренное на уровне метеостанции атмосферное давление.
Tmin - Минимальная температура - минимум температуры воздуха на высоте 2 м над землей.
Tmax - Максимальная температура - максимум температуры воздуха на высоте 2 м над землей.
R - Количество осадков - Количество выпавших осадков за период времени, мм. При наведении курсора мыши на число - период времени, за который выпало указанное количество осадков.
R24 - Количество осадков - Количество выпавших осадков за 24 часа, мм.
S - Снежный покров - Высота снежного покрова, см. При наведении курсора мыши на число - состояние снежного покрова и степень покрытия местности в баллах.